Simultaneous Nadir Overpasses (SNOs) Predictions

Prediction of SNOs between AQUA and LANDSAT-8 Satellite Orbit:

Table of predicted SNOs for the next 14.0 days since TLE Epoch: 1/28/2023
Index Date (AQUA) Time (AQUA) Lat,Lon (AQUA) SZA (AQUA ) Date (LANDSAT-8) Time (LANDSAT-8) Lat,Lon (LANDSAT-8) SZA (LANDSAT-8 ) Distance(km) Time Diff (sec)
1 01/29/2023 01:25:49 -71.22, -20.56 90.83 01/29/2023 01:24:43 -71.21, -23.12 90.79 91.81 66
2 01/29/2023 03:04:41 -71.28, -45.36 90.79 01/29/2023 03:03:35 -71.27, -47.75 90.75 85.21 66
3 01/29/2023 03:54:07 71.24, 122.34 89.17 01/29/2023 03:53:01 71.22, 119.82 89.21 89.96 66
4 01/29/2023 04:43:34 -71.39, -70.26 90.69 01/29/2023 04:42:26 -71.38, -72.29 90.66 72.12 68
5 01/29/2023 05:32:59 71.30, 97.53 89.21 01/29/2023 05:31:53 71.28, 95.20 89.24 83.33 66
6 01/29/2023 06:22:26 -71.45, -95.06 90.65 01/29/2023 06:21:18 -71.44, -96.91 90.62 65.52 68
7 01/29/2023 07:11:51 71.36, 72.73 89.25 01/29/2023 07:10:44 71.40, 70.66 89.33 73.57 67
8 01/29/2023 08:01:18 -71.50,-119.87 90.61 01/29/2023 08:00:10 -71.50,-121.54 90.58 58.92 68
9 01/29/2023 08:50:44 71.47, 47.83 89.34 01/29/2023 08:49:36 71.45, 46.04 89.37 63.56 68
10 01/29/2023 09:40:11 -71.61,-144.77 90.52 01/29/2023 09:39:01 -71.61,-146.07 90.49 45.84 70
11 01/29/2023 10:29:36 71.52, 23.03 89.38 01/29/2023 10:28:28 71.51, 21.41 89.41 56.92 68
12 01/29/2023 11:19:03 -71.67,-169.57 90.48 01/29/2023 11:17:53 -71.67,-170.70 90.45 39.23 70
13 01/29/2023 12:08:29 71.64, -1.87 89.48 01/29/2023 12:07:19 71.63, -3.12 89.50 43.79 70
14 01/29/2023 12:57:55 -71.73, 165.62 90.44 01/29/2023 12:56:45 -71.73, 164.68 90.42 32.62 70
15 01/29/2023 13:47:21 71.69, -26.68 89.52 01/29/2023 13:46:11 71.68, -27.74 89.54 37.15 70
16 01/29/2023 14:36:48 -71.84, 140.72 90.34 01/29/2023 14:35:36 -71.84, 140.15 90.33 19.54 72
17 01/29/2023 15:26:13 71.75, -51.49 89.56 01/29/2023 15:25:03 71.74, -52.37 89.58 30.51 70
18 01/29/2023 16:15:40 -71.89, 115.91 90.30 01/29/2023 16:14:28 -71.90, 115.53 90.29 12.94 72
19 01/29/2023 17:05:06 71.86, -76.39 89.66 01/29/2023 17:03:54 71.86, -76.90 89.67 17.38 72
20 01/29/2023 17:54:32 -71.95, 91.10 90.26 01/29/2023 17:53:20 -71.96, 90.91 90.25 6.34 72
21 01/29/2023 18:43:58 71.92,-101.21 89.70 01/29/2023 18:42:46 71.91,-101.52 89.71 10.74 72
22 01/29/2023 19:33:24 -72.01, 66.28 90.22 01/29/2023 19:32:12 -72.01, 66.29 90.21 0.71 72
23 01/29/2023 20:22:50 71.97,-126.02 89.74 01/29/2023 20:21:38 71.97,-126.14 89.74 4.10 72
24 01/29/2023 21:12:15 -72.01, 41.57 90.24 01/29/2023 21:11:05 -72.02, 41.58 90.23 0.91 70
25 01/29/2023 22:01:42 72.03,-150.83 89.78 01/29/2023 22:00:30 72.03,-150.76 89.78 2.55 72
26 01/29/2023 22:51:06 -72.01, 16.85 90.25 01/29/2023 22:49:58 -72.02, 16.87 90.24 1.11 68
27 01/29/2023 23:40:33 72.03,-175.55 89.76 01/29/2023 23:39:23 72.04,-175.47 89.77 2.69 70
28 01/30/2023 00:29:57 -72.02, -7.87 90.27 01/30/2023 00:28:51 -72.03, -7.85 90.25 1.30 66
29 01/30/2023 01:19:24 72.04, 159.74 89.75 01/30/2023 01:18:16 72.04, 159.82 89.75 2.85 68
30 01/30/2023 02:08:48 -72.02, -32.59 90.28 01/30/2023 02:07:44 -72.03, -32.56 90.27 1.49 64
31 01/30/2023 02:58:15 72.04, 135.02 89.73 01/30/2023 02:57:09 72.04, 135.11 89.74 3.01 66
32 01/30/2023 03:47:39 -72.02, -57.30 90.30 01/30/2023 03:46:37 -72.04, -57.27 90.28 1.68 62
33 01/30/2023 04:37:06 72.04, 110.30 89.72 01/30/2023 04:36:02 72.05, 110.39 89.72 3.17 64
34 01/30/2023 05:26:30 -72.03, -82.02 90.32 01/30/2023 05:25:30 -72.04, -81.99 90.30 1.87 60
35 01/30/2023 06:15:56 71.99, 85.68 89.65 01/30/2023 06:14:56 72.00, 85.58 89.66 3.25 60
36 01/30/2023 07:05:21 -72.03,-106.74 90.33 01/30/2023 07:04:23 -72.05,-106.70 90.31 2.05 58
37 01/30/2023 07:54:47 72.00, 60.96 89.63 01/30/2023 07:53:49 72.00, 60.87 89.64 3.11 58
38 01/30/2023 08:44:12 -72.04,-131.46 90.35 01/30/2023 08:43:16 -72.05,-131.41 90.33 2.23 56
39 01/30/2023 09:33:38 72.00, 36.24 89.62 01/30/2023 09:32:42 72.01, 36.16 89.63 2.98 56
40 01/30/2023 10:23:03 -72.04,-156.17 90.36 01/30/2023 10:22:09 -72.05,-156.13 90.34 2.41 54
41 01/30/2023 11:12:29 72.01, 11.52 89.60 01/30/2023 11:11:35 72.01, 11.44 89.61 2.85 54
42 01/30/2023 12:01:54 -72.04, 179.11 90.38 01/30/2023 12:01:02 -72.06, 179.16 90.36 2.58 52
43 01/30/2023 12:51:20 72.01, -13.19 89.59 01/30/2023 12:50:28 72.02, -13.27 89.60 2.72 52
44 01/30/2023 13:40:45 -72.05, 154.39 90.39 01/30/2023 13:39:55 -72.06, 154.45 90.37 2.76 50
45 01/30/2023 14:30:11 72.01, -37.91 89.57 01/30/2023 14:29:21 72.02, -37.98 89.59 2.59 50
46 01/30/2023 15:19:36 -72.05, 129.67 90.41 01/30/2023 15:18:48 -72.07, 129.73 90.38 2.93 48
47 01/30/2023 16:09:02 72.02, -62.63 89.56 01/30/2023 16:08:14 72.03, -62.70 89.57 2.47 48
48 01/30/2023 16:58:27 -72.05, 104.95 90.42 01/30/2023 16:57:41 -72.07, 105.02 90.40 3.09 46
49 01/30/2023 17:47:52 72.02, -87.35 89.54 01/30/2023 17:47:06 72.03, -87.41 89.56 2.34 46
50 01/30/2023 18:37:17 -72.06, 80.24 90.44 01/30/2023 18:36:33 -72.08, 80.31 90.41 3.26 44
51 01/30/2023 19:26:43 72.02,-112.07 89.53 01/30/2023 19:25:59 72.03,-112.12 89.54 2.22 44
52 01/30/2023 20:16:08 -72.06, 55.52 90.45 01/30/2023 20:15:26 -72.08, 55.59 90.43 3.42 42
53 01/30/2023 21:05:34 72.03,-136.79 89.51 01/30/2023 21:04:52 72.04,-136.84 89.53 2.10 42
54 01/30/2023 21:54:59 -72.06, 30.80 90.47 01/30/2023 21:54:19 -72.09, 30.88 90.44 3.58 40
55 01/30/2023 22:44:25 72.03,-161.50 89.50 01/30/2023 22:43:45 72.04,-161.55 89.51 1.98 40
56 01/30/2023 23:33:50 -72.07, 6.08 90.48 01/30/2023 23:33:13 -72.04, 6.07 90.51 3.64 37
57 01/31/2023 00:23:16 72.04, 173.78 89.48 01/31/2023 00:22:38 72.05, 173.74 89.50 1.86 38
58 01/31/2023 01:12:41 -72.07, -18.64 90.49 01/31/2023 01:12:06 -72.04, -18.64 90.52 3.59 35
59 01/31/2023 02:02:07 72.04, 149.06 89.47 01/31/2023 02:01:31 72.05, 149.02 89.48 1.75 36
60 01/31/2023 02:51:32 -72.08, -43.36 90.51 01/31/2023 02:50:59 -72.04, -43.36 90.54 3.56 33
61 01/31/2023 03:40:58 72.04, 124.34 89.45 01/31/2023 03:40:24 72.06, 124.31 89.47 1.64 34
62 01/31/2023 04:30:23 -72.08, -68.08 90.52 01/31/2023 04:29:52 -72.05, -68.07 90.55 3.54 31
63 01/31/2023 05:19:49 72.05, 99.62 89.44 01/31/2023 05:19:17 72.06, 99.59 89.45 1.54 32
64 01/31/2023 06:09:14 -72.08, -92.79 90.54 01/31/2023 06:08:45 -72.05, -92.78 90.57 3.54 29
65 01/31/2023 06:58:40 72.05, 74.90 89.42 01/31/2023 06:58:10 72.06, 74.88 89.44 1.45 30
66 01/31/2023 07:48:05 -72.09,-117.51 90.55 01/31/2023 07:47:38 -72.06,-117.50 90.58 3.55 27
67 01/31/2023 08:37:31 72.06, 50.18 89.41 01/31/2023 08:37:03 72.07, 50.17 89.42 1.36 28
68 01/31/2023 09:26:55 -72.04,-142.14 90.62 01/31/2023 09:26:31 -72.06,-142.21 90.60 3.50 24
69 01/31/2023 10:16:22 72.06, 25.46 89.39 01/31/2023 10:15:56 72.07, 25.45 89.41 1.29 26
70 01/31/2023 11:05:46 -72.04,-166.86 90.64 01/31/2023 11:05:24 -72.07,-166.92 90.61 3.38 22
71 01/31/2023 11:55:13 72.07, 0.75 89.38 01/31/2023 11:54:49 72.08, 0.74 89.39 1.23 24
72 01/31/2023 12:44:37 -72.05, 168.42 90.65 01/31/2023 12:44:17 -72.07, 168.36 90.63 3.25 20
73 01/31/2023 13:34:04 72.07, -23.97 89.36 01/31/2023 13:33:42 72.08, -23.97 89.38 1.18 22
74 01/31/2023 14:23:28 -72.05, 143.71 90.67 01/31/2023 14:23:10 -72.07, 143.65 90.64 3.12 18
75 01/31/2023 15:12:55 72.07, -48.69 89.35 01/31/2023 15:12:35 72.08, -48.69 89.36 1.16 20
76 01/31/2023 16:02:19 -72.06, 118.99 90.68 01/31/2023 16:02:03 -72.08, 118.93 90.66 2.99 16
77 01/31/2023 16:51:46 72.08, -73.41 89.34 01/31/2023 16:51:28 72.09, -73.40 89.35 1.17 18
78 01/31/2023 17:41:10 -72.06, 94.27 90.70 01/31/2023 17:40:56 -72.08, 94.22 90.67 2.86 14
79 01/31/2023 18:30:37 72.08, -98.13 89.32 01/31/2023 18:30:21 72.09, -98.12 89.33 1.19 16
80 01/31/2023 19:20:01 -72.07, 69.55 90.71 01/31/2023 19:19:49 -72.09, 69.51 90.69 2.73 12
81 01/31/2023 20:09:28 72.09,-122.85 89.31 01/31/2023 20:09:14 72.10,-122.83 89.32 1.25 14
82 01/31/2023 20:58:52 -72.07, 44.83 90.73 01/31/2023 20:58:42 -72.09, 44.79 90.71 2.60 10
83 01/31/2023 21:48:19 72.09,-147.57 89.29 01/31/2023 21:48:07 72.10,-147.54 89.30 1.32 12
84 01/31/2023 22:37:43 -72.07, 20.11 90.74 01/31/2023 22:37:35 -72.09, 20.08 90.72 2.48 8
85 01/31/2023 23:27:10 72.10,-172.29 89.28 01/31/2023 23:27:00 72.10,-172.26 89.29 1.42 10
86 02/01/2023 00:16:34 -72.08, -4.61 90.76 02/01/2023 00:16:28 -72.10, -4.64 90.74 2.35 6
87 02/01/2023 01:06:01 72.10, 162.99 89.26 02/01/2023 01:05:53 72.11, 163.03 89.27 1.53 8
88 02/01/2023 01:55:25 -72.08, -29.33 90.77 02/01/2023 01:55:21 -72.10, -29.35 90.75 2.23 4
89 02/01/2023 02:44:52 72.11, 138.27 89.25 02/01/2023 02:44:46 72.11, 138.31 89.25 1.66 6
90 02/01/2023 03:34:16 -72.09, -54.05 90.79 02/01/2023 03:34:14 -72.11, -54.06 90.77 2.12 2
91 02/01/2023 04:23:43 72.11, 113.55 89.23 02/01/2023 04:23:39 72.12, 113.60 89.24 1.80 4
92 02/01/2023 05:13:07 -72.09, -78.77 90.80 02/01/2023 05:13:07 -72.11, -78.78 90.78 2.01 0
93 02/01/2023 06:02:34 72.12, 88.83 89.22 02/01/2023 06:02:32 72.12, 88.89 89.22 1.96 2
94 02/01/2023 06:51:58 -72.10,-103.49 90.81 02/01/2023 06:52:00 -72.11,-103.49 90.80 1.91 2
95 02/01/2023 07:41:25 72.12, 64.11 89.20 02/01/2023 07:41:25 72.12, 64.17 89.21 2.12 0
96 02/01/2023 08:30:49 -72.10,-128.21 90.83 02/01/2023 08:30:53 -72.12,-128.21 90.81 1.82 4
97 02/01/2023 09:20:16 72.12, 39.39 89.19 02/01/2023 09:20:18 72.13, 39.46 89.19 2.30 2
98 02/01/2023 10:09:40 -72.11,-152.93 90.84 02/01/2023 10:09:46 -72.12,-152.92 90.83 1.75 6
99 02/01/2023 10:59:07 72.13, 14.67 89.18 02/01/2023 10:59:11 72.13, 14.74 89.18 2.48 4
100 02/01/2023 11:48:31 -72.11,-177.65 90.86 02/01/2023 11:48:39 -72.13,-177.63 90.84 1.70 8
101 02/01/2023 12:37:58 72.13, -10.05 89.16 02/01/2023 12:38:04 72.14, -9.97 89.16 2.68 6
102 02/01/2023 13:27:22 -72.12, 157.63 90.87 02/01/2023 13:27:32 -72.13, 157.65 90.86 1.68 10
103 02/01/2023 14:16:49 72.14, -34.77 89.15 02/01/2023 14:16:57 72.14, -34.69 89.14 2.88 8
104 02/01/2023 15:06:13 -72.12, 132.91 90.89 02/01/2023 15:06:25 -72.13, 132.94 90.88 1.68 12
105 02/01/2023 15:55:40 72.14, -59.49 89.13 02/01/2023 15:55:50 72.14, -59.40 89.13 3.08 10
106 02/01/2023 16:45:04 -72.13, 108.19 90.90 02/01/2023 16:45:18 -72.14, 108.22 90.89 1.71 14
107 02/01/2023 17:34:30 72.10, -84.12 89.06 02/01/2023 17:34:44 72.09, -84.21 89.06 3.25 14
108 02/01/2023 18:23:55 -72.13, 83.47 90.92 02/01/2023 18:24:11 -72.14, 83.51 90.91 1.76 16
109 02/01/2023 19:13:21 72.10,-108.84 89.05 02/01/2023 19:13:37 72.10,-108.92 89.04 3.06 16
110 02/01/2023 20:02:46 -72.14, 58.75 90.93 02/01/2023 20:03:04 -72.15, 58.79 90.92 1.85 18
111 02/01/2023 20:52:11 72.11,-133.56 89.03 02/01/2023 20:52:29 72.10,-133.64 89.03 2.88 18
112 02/01/2023 21:41:36 -72.14, 34.03 90.95 02/01/2023 21:41:56 -72.15, 34.08 90.94 1.96 20
113 02/01/2023 22:31:02 72.11,-158.28 89.02 02/01/2023 22:31:22 72.11,-158.35 89.01 2.71 20
114 02/01/2023 23:20:27 -72.15, 9.31 90.96 02/01/2023 23:20:49 -72.15, 9.37 90.96 2.09 22
115 02/02/2023 00:09:53 72.12, 177.00 89.00 02/02/2023 00:10:15 72.11, 176.93 89.00 2.55 22
116 02/02/2023 00:59:18 -72.15, -15.41 90.97 02/02/2023 00:59:42 -72.16, -15.35 90.97 2.25 24
117 02/02/2023 01:48:44 72.12, 152.28 88.99 02/02/2023 01:49:08 72.11, 152.22 88.98 2.42 24
118 02/02/2023 02:38:09 -72.16, -40.13 90.99 02/02/2023 02:38:35 -72.16, -40.06 90.99 2.42 26
119 02/02/2023 03:27:35 72.13, 127.56 88.98 02/02/2023 03:28:01 72.12, 127.50 88.96 2.31 26
120 02/02/2023 04:17:00 -72.16, -64.85 91.00 02/02/2023 04:17:28 -72.16, -64.78 91.00 2.61 28
121 02/02/2023 05:06:26 72.13, 102.84 88.96 02/02/2023 05:06:54 72.12, 102.79 88.95 2.24 28
122 02/02/2023 05:55:51 -72.17, -89.57 91.02 02/02/2023 05:56:21 -72.17, -89.49 91.02 2.82 30
123 02/02/2023 06:45:17 72.14, 78.12 88.95 02/02/2023 06:45:47 72.12, 78.07 88.93 2.21 30
124 02/02/2023 07:34:42 -72.17,-114.30 91.03 02/02/2023 07:35:14 -72.17,-114.21 91.04 3.04 32
125 02/02/2023 08:24:08 72.14, 53.40 88.93 02/02/2023 08:24:40 72.13, 53.36 88.92 2.21 32
126 02/02/2023 09:13:33 -72.18,-139.02 91.05 02/02/2023 09:14:07 -72.18,-138.92 91.05 3.27 34
127 02/02/2023 10:02:59 72.15, 28.68 88.92 02/02/2023 10:03:33 72.13, 28.64 88.90 2.27 34
128 02/02/2023 10:52:23 -72.13,-163.64 91.11 02/02/2023 10:53:01 -72.13,-163.73 91.12 3.07 38
129 02/02/2023 11:41:50 72.15, 3.96 88.91 02/02/2023 11:42:26 72.13, 3.93 88.88 2.36 36
130 02/02/2023 12:31:14 -72.14, 171.64 91.13 02/02/2023 12:31:54 -72.13, 171.56 91.14 2.89 40
131 02/02/2023 13:20:41 72.16, -20.77 88.89 02/02/2023 13:21:19 72.14, -20.78 88.87 2.50 38
132 02/02/2023 14:10:05 -72.14, 146.92 91.14 02/02/2023 14:10:47 -72.13, 146.84 91.15 2.74 42
133 02/02/2023 14:59:32 72.17, -45.49 88.88 02/02/2023 15:00:12 72.14, -45.50 88.85 2.67 40
134 02/02/2023 15:48:56 -72.15, 122.19 91.16 02/02/2023 15:49:40 -72.14, 122.13 91.17 2.61 44
135 02/02/2023 16:38:23 72.17, -70.21 88.86 02/02/2023 16:39:05 72.15, -70.21 88.83 2.87 42
136 02/02/2023 17:27:47 -72.15, 97.47 91.17 02/02/2023 17:28:33 -72.14, 97.41 91.19 2.51 46
137 02/02/2023 18:17:14 72.18, -94.93 88.85 02/02/2023 18:17:58 72.15, -94.93 88.82 3.10 44
138 02/02/2023 19:06:38 -72.16, 72.75 91.19 02/02/2023 19:07:26 -72.14, 72.70 91.20 2.45 48
139 02/02/2023 19:56:05 72.18,-119.65 88.84 02/02/2023 19:56:51 72.15,-119.64 88.80 3.35 46
140 02/02/2023 20:45:29 -72.16, 48.03 91.20 02/02/2023 20:46:19 -72.15, 47.98 91.22 2.44 50
141 02/02/2023 21:34:56 72.19,-144.37 88.82 02/02/2023 21:35:44 72.16,-144.36 88.78 3.63 48
142 02/02/2023 22:24:20 -72.17, 23.31 91.21 02/02/2023 22:25:12 -72.15, 23.27 91.24 2.48 52
143 02/02/2023 23:13:46 72.14,-169.00 88.75 02/02/2023 23:14:37 72.16,-169.07 88.77 3.30 51
144 02/03/2023 00:03:11 -72.17, -1.41 91.23 02/03/2023 00:04:05 -72.15, -1.45 91.25 2.57 54
145 02/03/2023 00:52:37 72.15, 166.28 88.74 02/03/2023 00:53:30 72.16, 166.21 88.75 2.96 53
146 02/03/2023 01:42:02 -72.18, -26.13 91.24 02/03/2023 01:42:58 -72.16, -26.16 91.27 2.70 56
147 02/03/2023 02:31:28 72.15, 141.56 88.72 02/03/2023 02:32:23 72.17, 141.50 88.73 2.60 55
148 02/03/2023 03:20:53 -72.19, -50.86 91.26 02/03/2023 03:21:51 -72.16, -50.88 91.29 2.87 58
149 02/03/2023 04:10:19 72.16, 116.84 88.71 02/03/2023 04:11:16 72.17, 116.78 88.72 2.25 57
150 02/03/2023 04:59:44 -72.19, -75.58 91.27 02/03/2023 05:00:44 -72.16, -75.59 91.30 3.08 60
151 02/03/2023 05:49:10 72.16, 92.11 88.70 02/03/2023 05:50:09 72.17, 92.07 88.70 1.89 59
152 02/03/2023 06:38:35 -72.20,-100.30 91.28 02/03/2023 06:39:37 -72.17,-100.31 91.32 3.32 62
153 02/03/2023 07:28:01 72.17, 67.39 88.68 02/03/2023 07:29:02 72.18, 67.35 88.68 1.54 61
154 02/03/2023 08:17:26 -72.20,-125.02 91.30 02/03/2023 08:18:30 -72.17,-125.02 91.34 3.59 64
155 02/03/2023 09:06:52 72.18, 42.67 88.67 02/03/2023 09:07:55 72.18, 42.64 88.67 1.19 63
156 02/03/2023 09:56:16 -72.16,-149.65 91.37 02/03/2023 09:57:23 -72.17,-149.74 91.35 3.68 67
157 02/03/2023 10:45:43 72.18, 17.95 88.65 02/03/2023 10:46:48 72.18, 17.92 88.65 0.88 65
158 02/03/2023 11:35:07 -72.16,-174.37 91.38 02/03/2023 11:36:16 -72.18,-174.45 91.37 3.32 69
159 02/03/2023 12:24:34 72.19, -6.78 88.64 02/03/2023 12:25:41 72.19, -6.79 88.63 0.65 67
160 02/03/2023 13:13:58 -72.17, 160.91 91.39 02/03/2023 13:15:09 -72.18, 160.83 91.39 2.95 71
161 02/03/2023 14:03:25 72.19, -31.50 88.63 02/03/2023 14:04:34 72.19, -31.51 88.62 0.62 69
162 02/03/2023 14:52:50 -72.23, 136.09 91.35 02/03/2023 14:54:01 -72.24, 136.21 91.35 4.37 71
163 02/03/2023 15:42:16 72.20, -56.22 88.61 02/03/2023 15:43:27 72.19, -56.22 88.60 0.82 71
164 02/03/2023 16:31:42 -72.29, 111.27 91.31 02/03/2023 16:32:54 -72.24, 111.50 91.37 9.25 72
165 02/03/2023 17:21:08 72.26, -81.04 88.65 02/03/2023 17:22:19 72.25, -80.84 88.63 6.78 71
166 02/03/2023 18:10:34 -72.35, 86.45 91.27 02/03/2023 18:11:46 -72.30, 86.88 91.33 15.48 72
167 02/03/2023 19:00:00 72.32,-105.86 88.70 02/03/2023 19:01:11 72.31,-105.46 88.67 13.57 71
168 02/03/2023 19:49:27 -72.46, 61.53 91.17 02/03/2023 19:50:37 -72.41, 62.36 91.25 28.39 70
169 02/03/2023 20:38:53 72.43,-130.78 88.79 02/03/2023 20:40:03 72.36,-130.08 88.70 24.83 70
170 02/03/2023 21:28:19 -72.52, 36.71 91.13 02/03/2023 21:29:29 -72.46, 37.74 91.21 35.12 70
171 02/03/2023 22:17:45 72.49,-155.60 88.84 02/03/2023 22:18:55 72.42,-154.70 88.74 31.46 70
172 02/03/2023 23:07:11 -72.58, 11.88 91.09 02/03/2023 23:08:20 -72.57, 13.22 91.13 44.64 69
173 02/03/2023 23:56:36 72.55, 179.57 88.88 02/03/2023 23:57:45 72.53,-179.21 88.83 40.55 69
174 02/04/2023 00:46:03 -72.69, -13.04 90.99 02/04/2023 00:47:11 -72.63, -11.39 91.09 55.09 68
175 02/04/2023 01:35:29 72.66, 154.65 88.97 02/04/2023 01:36:37 72.59, 156.17 88.86 51.33 68
176 02/04/2023 02:24:55 -72.75, -37.87 90.95 02/04/2023 02:26:03 -72.69, -36.01 91.06 61.87 68
177 02/04/2023 03:14:21 72.72, 129.82 89.02 02/04/2023 03:15:29 72.64, 131.56 88.89 58.11 68
178 02/04/2023 04:03:47 -72.81, -62.69 90.91 02/04/2023 04:04:54 -72.80, -60.52 90.97 71.52 67
179 02/04/2023 04:53:13 72.78, 104.99 89.06 02/04/2023 04:54:20 72.75, 107.04 88.98 67.56 67
180 02/04/2023 05:42:40 -72.92, -87.62 90.81 02/04/2023 05:43:46 -72.85, -85.13 90.94 81.93 66
181 02/04/2023 06:32:06 72.90, 80.06 89.16 02/04/2023 06:33:12 72.81, 82.43 89.02 78.19 66
182 02/04/2023 07:21:32 -72.98,-112.45 90.77 02/04/2023 07:22:37 -72.96,-109.64 90.85 91.62 65
183 02/04/2023 08:10:58 72.95, 55.23 89.20 02/04/2023 08:12:03 72.92, 57.92 89.10 87.75 65
184 02/04/2023 09:49:50 73.01, 30.41 89.24 02/04/2023 09:50:55 72.97, 33.31 89.14 94.58 65



Historial Predications of SNOs between AQUA and LANDSAT-8
